Check out our new BloomSky Weather System.

Active alerts

Houston, TX
  Details for Houston, TX Dense Fog Advisory


Thunder radar  blitzortung!


Rain radar more information rain snow radar


Visit our other weather sites:

Template documentation
and downloads

And another site



Weather Underground History page Text

Daily Summary for February 9, 2017 Units:  English    Metric   Both
« Previous Day
Next Day »
Daily Weekly Monthly Yearly Custom
  High: Low: Average:
Temperature: 72.3 °F 48.7 °F 58.5 °F
Dew Point: 43.3 °F 37.6 °F 40.4 °F
Humidity: 78 % 29 % 53 %
Wind Speed: 8.0 mph 0.0 mph 2.1 mph
Wind Gust: 14.0 mph - -
Wind:- - SW
Pressure: 30.33 in 30.08 in -
Precipitation: 0.00 in    
Historical Graphs
 
 
Tabular Data for February 9, 2017
Time Temperature Dew Point Pressure Wind Wind Speed Wind Gust Humidity Rainfall Rate (Hourly)
00:00 60.4 °F 42.3 °F 30.08 in NW 4.0 mph 13.0 mph 51 % 0.00 in
00:05 60.3 °F 42.1 °F 30.08 in NNW 4.0 mph 13.0 mph 51 % 0.00 in
00:10 60.1 °F 42.4 °F 30.09 in NW 5.0 mph 13.0 mph 52 % 0.00 in
00:15 59.9 °F 42.3 °F 30.08 in NW 3.0 mph 11.0 mph 52 % 0.00 in
00:20 59.7 °F 42.1 °F 30.09 in NW 3.0 mph 8.0 mph 52 % 0.00 in
00:25 59.5 °F 41.9 °F 30.09 in NW 3.0 mph 11.0 mph 52 % 0.00 in
00:30 59.4 °F 41.7 °F 30.09 in NW 5.0 mph 11.0 mph 52 % 0.00 in
00:35 59.2 °F 41.5 °F 30.09 in NW 5.0 mph 11.0 mph 52 % 0.00 in
00:40 59.2 °F 41.5 °F 30.09 in NNE 5.0 mph 10.0 mph 52 % 0.00 in
00:45 58.8 °F 41.7 °F 30.09 in NNW 5.0 mph 9.0 mph 53 % 0.00 in
00:50 58.6 °F 41.0 °F 30.10 in WNW 5.0 mph 9.0 mph 52 % 0.00 in
00:55 58.6 °F 41.0 °F 30.10 in NW 3.0 mph 9.0 mph 52 % 0.00 in
01:00 58.5 °F 40.8 °F 30.10 in NW 8.0 mph 14.0 mph 52 % 0.00 in
01:05 58.3 °F 41.2 °F 30.11 in NNW 5.0 mph 14.0 mph 53 % 0.00 in
01:10 57.9 °F 40.8 °F 30.11 in NW 4.0 mph 14.0 mph 53 % 0.00 in
01:15 57.7 °F 40.6 °F 30.11 in North 5.0 mph 10.0 mph 53 % 0.00 in
01:20 57.6 °F 40.6 °F 30.12 in NNW 3.0 mph 10.0 mph 53 % 0.00 in
01:25 57.4 °F 40.5 °F 30.12 in NNW 4.0 mph 10.0 mph 53 % 0.00 in
01:30 57.4 °F 40.5 °F 30.12 in NNW 7.0 mph 10.0 mph 53 % 0.00 in
01:34 57.0 °F 40.5 °F 30.12 in NW 8.0 mph 10.0 mph 54 % 0.00 in
01:39 57.0 °F 40.5 °F 30.11 in NNW 2.0 mph 12.0 mph 54 % 0.00 in
01:44 56.7 °F 40.3 °F 30.12 in North 6.0 mph 12.0 mph 54 % 0.00 in
01:49 56.7 °F 40.3 °F 30.12 in NNW 2.0 mph 12.0 mph 54 % 0.00 in
01:54 56.5 °F 40.1 °F 30.12 in NNW 4.0 mph 7.0 mph 54 % 0.00 in
01:59 56.5 °F 40.1 °F 30.12 in NW 2.0 mph 8.0 mph 54 % 0.00 in
02:05 56.3 °F 39.9 °F 30.12 in NE 7.0 mph 9.0 mph 54 % 0.00 in
02:10 56.1 °F 39.7 °F 30.11 in North 2.0 mph 9.0 mph 54 % 0.00 in
02:15 55.9 °F 39.9 °F 30.11 in WNW 5.0 mph 9.0 mph 55 % 0.00 in
02:20 55.8 °F 39.9 °F 30.11 in WNW 1.0 mph 7.0 mph 55 % 0.00 in
02:25 55.6 °F 39.7 °F 30.12 in NW 3.0 mph 6.0 mph 55 % 0.00 in
02:30 55.4 °F 39.6 °F 30.12 in WNW 6.0 mph 9.0 mph 55 % 0.00 in
02:35 55.2 °F 39.4 °F 30.12 in NW 3.0 mph 9.0 mph 55 % 0.00 in
02:40 55.2 °F 39.4 °F 30.12 in NW 3.0 mph 9.0 mph 55 % 0.00 in
02:45 55.0 °F 39.6 °F 30.13 in NNW 3.0 mph 8.0 mph 56 % 0.00 in
02:50 54.9 °F 39.4 °F 30.12 in NNW 2.0 mph 8.0 mph 56 % 0.00 in
02:55 54.9 °F 39.4 °F 30.12 in NW 5.0 mph 8.0 mph 56 % 0.00 in
03:00 54.7 °F 39.4 °F 30.12 in NW 2.0 mph 8.0 mph 56 % 0.00 in
03:05 54.7 °F 39.4 °F 30.12 in NW 2.0 mph 8.0 mph 56 % 0.00 in
03:10 54.5 °F 39.2 °F 30.13 in NW 2.0 mph 8.0 mph 56 % 0.00 in
03:15 54.3 °F 39.0 °F 30.13 in WSW 3.0 mph 6.0 mph 56 % 0.00 in
03:20 54.3 °F 39.0 °F 30.13 in North 3.0 mph 7.0 mph 56 % 0.00 in
03:25 54.3 °F 39.0 °F 30.13 in NW 2.0 mph 9.0 mph 56 % 0.00 in
03:30 54.1 °F 38.8 °F 30.13 in WNW 1.0 mph 10.0 mph 56 % 0.00 in
03:35 54.1 °F 38.3 °F 30.13 in NE 4.0 mph 10.0 mph 55 % 0.00 in
03:40 54.1 °F 38.3 °F 30.13 in WNW 3.0 mph 12.0 mph 55 % 0.00 in
03:45 54.1 °F 38.8 °F 30.13 in NW 6.0 mph 12.0 mph 56 % 0.00 in
03:51 54.0 °F 38.7 °F 30.14 in NW 4.0 mph 12.0 mph 56 % 0.00 in
03:56 53.8 °F 38.5 °F 30.14 in WNW 4.0 mph 12.0 mph 56 % 0.00 in
04:01 53.8 °F 38.5 °F 30.14 in NE 3.0 mph 9.0 mph 56 % 0.00 in
04:06 53.8 °F 38.5 °F 30.14 in West 2.0 mph 11.0 mph 56 % 0.00 in
04:11 53.8 °F 38.5 °F 30.14 in NW 1.0 mph 11.0 mph 56 % 0.00 in
04:16 53.4 °F 38.1 °F 30.14 in North 6.0 mph 11.0 mph 56 % 0.00 in
04:21 53.4 °F 38.1 °F 30.13 in NNE 4.0 mph 11.0 mph 56 % 0.00 in
04:26 53.2 °F 37.9 °F 30.13 in NNW 5.0 mph 11.0 mph 56 % 0.00 in
04:31 53.2 °F 37.9 °F 30.14 in North 3.0 mph 11.0 mph 56 % 0.00 in
04:36 53.1 °F 38.3 °F 30.14 in NNW 2.0 mph 10.0 mph 57 % 0.00 in
04:41 53.1 °F 38.3 °F 30.14 in NW 3.0 mph 13.0 mph 57 % 0.00 in
04:46 52.9 °F 38.1 °F 30.14 in NNW 6.0 mph 13.0 mph 57 % 0.00 in
04:51 52.9 °F 38.1 °F 30.14 in WSW 2.0 mph 14.0 mph 57 % 0.00 in
04:56 52.7 °F 37.9 °F 30.14 in WNW 4.0 mph 14.0 mph 57 % 0.00 in
05:01 52.5 °F 38.1 °F 30.14 in NNW 3.0 mph 14.0 mph 58 % 0.00 in
05:06 52.5 °F 38.1 °F 30.14 in NNE 2.0 mph 10.0 mph 58 % 0.00 in
05:11 52.3 °F 37.9 °F 30.14 in NNE 6.0 mph 13.0 mph 58 % 0.00 in
05:16 52.3 °F 37.9 °F 30.15 in NNE 3.0 mph 13.0 mph 58 % 0.00 in
05:21 52.2 °F 38.3 °F 30.15 in NNW 2.0 mph 13.0 mph 59 % 0.00 in
05:26 52.2 °F 38.3 °F 30.15 in NW 4.0 mph 9.0 mph 59 % 0.00 in
05:31 52.0 °F 38.1 °F 30.15 in NNE 2.0 mph 9.0 mph 59 % 0.00 in
05:37 51.8 °F 38.3 °F 30.16 in North 8.0 mph 9.0 mph 60 % 0.00 in
05:42 51.6 °F 38.1 °F 30.16 in NNE 1.0 mph 9.0 mph 60 % 0.00 in
05:47 51.6 °F 38.7 °F 30.16 in North 4.0 mph 9.0 mph 61 % 0.00 in
05:48 51.6 °F 38.7 °F 30.16 in North 2.0 mph 9.0 mph 61 % 0.00 in
05:53 51.4 °F 38.5 °F 30.16 in NNE 1.0 mph 10.0 mph 61 % 0.00 in
05:58 51.3 °F 38.7 °F 30.17 in North 5.0 mph 12.0 mph 62 % 0.00 in
06:03 51.3 °F 38.7 °F 30.17 in NNW 1.0 mph 12.0 mph 62 % 0.00 in
06:08 51.3 °F 38.7 °F 30.17 in North 5.0 mph 12.0 mph 62 % 0.00 in
06:13 51.1 °F 38.8 °F 30.17 in East 1.0 mph 9.0 mph 63 % 0.00 in
06:18 50.9 °F 38.8 °F 30.17 in NE 1.0 mph 8.0 mph 63 % 0.00 in
06:23 50.7 °F 38.7 °F 30.18 in NW 1.0 mph 8.0 mph 63 % 0.00 in
06:28 50.5 °F 38.8 °F 30.19 in NNE 1.0 mph 7.0 mph 64 % 0.00 in
06:33 50.4 °F 38.7 °F 30.19 in NNW 2.0 mph 5.0 mph 64 % 0.00 in
06:38 50.4 °F 39.0 °F 30.20 in Calm   5.0 mph 65 % 0.00 in
06:43 50.2 °F 38.8 °F 30.21 in NW 3.0 mph 6.0 mph 65 % 0.00 in
06:48 50.2 °F 38.8 °F 30.21 in Calm   6.0 mph 65 % 0.00 in
06:53 50.2 °F 38.8 °F 30.21 in North 2.0 mph 6.0 mph 65 % 0.00 in
06:58 49.8 °F 38.8 °F 30.22 in NW 1.0 mph 6.0 mph 66 % 0.00 in
07:03 49.8 °F 38.8 °F 30.22 in North 2.0 mph 6.0 mph 66 % 0.00 in
07:08 49.8 °F 38.8 °F 30.22 in NNW 2.0 mph 4.0 mph 66 % 0.00 in
07:13 49.6 °F 38.7 °F 30.23 in NNE 8.0 mph 8.0 mph 66 % 0.00 in
07:18 49.5 °F 38.7 °F 30.23 in WSW 1.0 mph 8.0 mph 66 % 0.00 in
07:23 49.5 °F 38.7 °F 30.24 in NW 3.0 mph 8.0 mph 66 % 0.00 in
07:28 49.5 °F 38.7 °F 30.24 in NW 1.0 mph 8.0 mph 66 % 0.00 in
07:33 49.5 °F 38.7 °F 30.25 in NW 3.0 mph 8.0 mph 66 % 0.00 in
07:38 49.5 °F 38.7 °F 30.25 in NNW 6.0 mph 9.0 mph 66 % 0.00 in
07:43 49.5 °F 38.7 °F 30.26 in NNW 2.0 mph 9.0 mph 66 % 0.00 in
07:48 49.6 °F 38.7 °F 30.26 in NNW 3.0 mph 9.0 mph 66 % 0.00 in
07:53 49.6 °F 38.7 °F 30.27 in WNW 3.0 mph 10.0 mph 66 % 0.00 in
07:58 49.8 °F 38.5 °F 30.27 in North 5.0 mph 10.0 mph 65 % 0.00 in
08:03 50.2 °F 38.5 °F 30.27 in NNW 3.0 mph 10.0 mph 64 % 0.00 in
08:08 50.4 °F 38.7 °F 30.27 in WNW 1.0 mph 10.0 mph 64 % 0.00 in
08:13 50.7 °F 38.7 °F 30.28 in NNW 3.0 mph 10.0 mph 63 % 0.00 in
08:18 50.7 °F 38.7 °F 30.28 in NNW 5.0 mph 10.0 mph 63 % 0.00 in
08:23 50.7 °F 38.1 °F 30.28 in NW 5.0 mph 10.0 mph 62 % 0.00 in
08:28 50.9 °F 38.8 °F 30.29 in WNW 3.0 mph 10.0 mph 63 % 0.00 in
08:33 51.3 °F 38.7 °F 30.29 in NNW 5.0 mph 10.0 mph 62 % 0.00 in
08:38 51.3 °F 38.7 °F 30.29 in NNW 2.0 mph 10.0 mph 62 % 0.00 in
08:44 51.6 °F 39.0 °F 30.30 in NNW 1.0 mph 10.0 mph 62 % 0.00 in
08:49 52.2 °F 39.2 °F 30.30 in NE 3.0 mph 10.0 mph 61 % 0.00 in
08:54 52.5 °F 39.4 °F 30.30 in NW 2.0 mph 10.0 mph 61 % 0.00 in
08:59 53.1 °F 39.6 °F 30.30 in NNW 5.0 mph 7.0 mph 60 % 0.00 in
09:04 53.2 °F 39.2 °F 30.31 in NNW 2.0 mph 7.0 mph 59 % 0.00 in
09:09 53.8 °F 39.7 °F 30.31 in NW 2.0 mph 9.0 mph 59 % 0.00 in
09:14 54.1 °F 40.1 °F 30.31 in NNE 4.0 mph 9.0 mph 59 % 0.00 in
09:19 54.1 °F 39.7 °F 30.31 in WNW 3.0 mph 9.0 mph 58 % 0.00 in
09:24 54.1 °F 39.7 °F 30.32 in North 3.0 mph 8.0 mph 58 % 0.00 in
09:29 54.3 °F 39.9 °F 30.32 in NW 6.0 mph 9.0 mph 58 % 0.00 in
09:34 54.7 °F 39.7 °F 30.32 in NNE 2.0 mph 9.0 mph 57 % 0.00 in
09:39 54.9 °F 39.9 °F 30.32 in NNW 4.0 mph 9.0 mph 57 % 0.00 in
09:44 54.9 °F 40.3 °F 30.32 in NE 1.0 mph 8.0 mph 58 % 0.00 in
09:49 55.2 °F 40.3 °F 30.32 in NW 4.0 mph 9.0 mph 57 % 0.00 in
09:54 55.8 °F 40.3 °F 30.32 in West 3.0 mph 9.0 mph 56 % 0.00 in
09:59 56.1 °F 40.1 °F 30.32 in North 4.0 mph 9.0 mph 55 % 0.00 in
10:04 56.1 °F 40.1 °F 30.32 in NW 1.0 mph 8.0 mph 55 % 0.00 in
10:09 55.9 °F 39.9 °F 30.33 in NNW 7.0 mph 8.0 mph 55 % 0.00 in
10:14 56.3 °F 40.3 °F 30.33 in ENE 1.0 mph 8.0 mph 55 % 0.00 in
10:20 56.7 °F 40.3 °F 30.33 in NE 1.0 mph 7.0 mph 54 % 0.00 in
10:25 57.0 °F 40.1 °F 30.33 in NW 5.0 mph 7.0 mph 53 % 0.00 in
10:30 57.2 °F 40.6 °F 30.33 in NNE 6.0 mph 8.0 mph 54 % 0.00 in
10:35 57.7 °F 41.2 °F 30.33 in North 5.0 mph 8.0 mph 54 % 0.00 in
10:40 58.1 °F 41.0 °F 30.33 in NW 4.0 mph 8.0 mph 53 % 0.00 in
10:45 58.3 °F 40.8 °F 30.33 in Calm   7.0 mph 52 % 0.00 in
10:50 58.5 °F 40.5 °F 30.33 in Calm   7.0 mph 51 % 0.00 in
10:55 58.6 °F 40.1 °F 30.33 in ENE 4.0 mph 9.0 mph 50 % 0.00 in
11:00 59.0 °F 40.8 °F 30.33 in Calm   9.0 mph 51 % 0.00 in
11:05 59.2 °F 40.6 °F 30.33 in NNE 1.0 mph 9.0 mph 50 % 0.00 in
11:10 59.0 °F 40.5 °F 30.32 in ENE 2.0 mph 8.0 mph 50 % 0.00 in
11:15 59.5 °F 40.8 °F 30.32 in North 1.0 mph 8.0 mph 50 % 0.00 in
11:20 60.1 °F 40.3 °F 30.32 in North 2.0 mph 8.0 mph 48 % 0.00 in
11:25 59.9 °F 40.6 °F 30.32 in NNW 2.0 mph 10.0 mph 49 % 0.00 in
11:30 60.4 °F 41.2 °F 30.33 in NNW 3.0 mph 10.0 mph 49 % 0.00 in
11:35 61.3 °F 42.1 °F 30.32 in NNW 2.0 mph 10.0 mph 49 % 0.00 in
11:40 61.7 °F 41.9 °F 30.32 in North 3.0 mph 6.0 mph 48 % 0.00 in
11:45 62.2 °F 41.2 °F 30.32 in ENE 6.0 mph 6.0 mph 46 % 0.00 in
11:50 62.1 °F 40.5 °F 30.31 in NE 2.0 mph 7.0 mph 45 % 0.00 in
11:55 62.1 °F 41.0 °F 30.31 in NNW 2.0 mph 7.0 mph 46 % 0.00 in
12:01 62.2 °F 40.6 °F 30.31 in NNE 3.0 mph 7.0 mph 45 % 0.00 in
12:06 62.4 °F 41.4 °F 30.31 in NE 5.0 mph 7.0 mph 46 % 0.00 in
12:11 62.8 °F 41.2 °F 30.31 in East 4.0 mph 7.0 mph 45 % 0.00 in
12:16 63.1 °F 41.5 °F 30.30 in Calm   7.0 mph 45 % 0.00 in
12:21 63.5 °F 41.2 °F 30.30 in NW 4.0 mph 7.0 mph 44 % 0.00 in
12:26 64.0 °F 41.7 °F 30.30 in NW 2.0 mph 7.0 mph 44 % 0.00 in
12:31 64.4 °F 42.1 °F 30.30 in NNW 5.0 mph 8.0 mph 44 % 0.00 in
12:36 64.8 °F 42.3 °F 30.30 in NNW 1.0 mph 8.0 mph 44 % 0.00 in
12:41 65.1 °F 41.5 °F 30.30 in NE 1.0 mph 8.0 mph 42 % 0.00 in
12:46 65.5 °F 41.7 °F 30.30 in NNE 5.0 mph 10.0 mph 42 % 0.00 in
12:51 65.8 °F 40.8 °F 30.29 in NNW 1.0 mph 10.0 mph 40 % 0.00 in
12:56 65.8 °F 41.5 °F 30.29 in Calm   10.0 mph 41 % 0.00 in
13:01 66.7 °F 41.7 °F 30.29 in ENE 2.0 mph 7.0 mph 40 % 0.00 in
13:06 67.3 °F 41.5 °F 30.28 in Calm   7.0 mph 39 % 0.00 in
13:11 67.6 °F 41.7 °F 30.27 in Calm   7.0 mph 39 % 0.00 in
13:16 67.8 °F 41.4 °F 30.27 in ENE 2.0 mph 9.0 mph 38 % 0.00 in
13:21 68.0 °F 40.1 °F 30.27 in NNE 4.0 mph 9.0 mph 36 % 0.00 in
13:26 67.3 °F 40.8 °F 30.27 in NNW 6.0 mph 9.0 mph 38 % 0.00 in
13:31 67.5 °F 41.0 °F 30.26 in NE 2.0 mph 9.0 mph 38 % 0.00 in
13:36 67.8 °F 40.6 °F 30.26 in North 3.0 mph 9.0 mph 37 % 0.00 in
13:41 67.6 °F 40.5 °F 30.26 in Calm   8.0 mph 37 % 0.00 in
13:46 68.4 °F 41.0 °F 30.26 in ENE 1.0 mph 8.0 mph 37 % 0.00 in
13:51 68.2 °F 40.3 °F 30.26 in NNE 2.0 mph 8.0 mph 36 % 0.00 in
13:56 68.4 °F 39.6 °F 30.25 in Calm   8.0 mph 35 % 0.00 in
14:02 68.7 °F 40.6 °F 30.25 in NNW 3.0 mph 8.0 mph 36 % 0.00 in
14:07 69.3 °F 40.5 °F 30.25 in ESE 2.0 mph 8.0 mph 35 % 0.00 in
14:12 69.3 °F 39.7 °F 30.25 in Calm   8.0 mph 34 % 0.00 in
14:17 69.3 °F 38.8 °F 30.25 in SE 1.0 mph 8.0 mph 33 % 0.00 in
14:22 69.8 °F 40.1 °F 30.25 in East 2.0 mph 6.0 mph 34 % 0.00 in
14:27 69.8 °F 40.1 °F 30.25 in NNE 3.0 mph 7.0 mph 34 % 0.00 in
14:32 70.0 °F 40.3 °F 30.25 in ENE 3.0 mph 7.0 mph 34 % 0.00 in
14:37 70.3 °F 39.9 °F 30.25 in North 4.0 mph 8.0 mph 33 % 0.00 in
14:42 70.2 °F 39.7 °F 30.25 in ENE 3.0 mph 8.0 mph 33 % 0.00 in
14:47 70.0 °F 39.6 °F 30.24 in Calm   8.0 mph 33 % 0.00 in
14:52 70.3 °F 39.0 °F 30.24 in ENE 3.0 mph 7.0 mph 32 % 0.00 in
14:57 70.2 °F 39.7 °F 30.24 in East 2.0 mph 6.0 mph 33 % 0.00 in
15:02 70.2 °F 39.7 °F 30.24 in ESE 4.0 mph 6.0 mph 33 % 0.00 in
15:07 70.2 °F 38.8 °F 30.24 in SE 5.0 mph 6.0 mph 32 % 0.00 in
15:12 70.5 °F 40.1 °F 30.24 in Calm   7.0 mph 33 % 0.00 in
15:17 70.3 °F 39.9 °F 30.24 in ENE 1.0 mph 8.0 mph 33 % 0.00 in
15:22 70.9 °F 41.2 °F 30.24 in SE 4.0 mph 8.0 mph 34 % 0.00 in
15:23 70.9 °F 40.3 °F 30.24 in ENE 2.0 mph 8.0 mph 33 % 0.00 in
15:28 71.2 °F 39.9 °F 30.24 in Calm   8.0 mph 32 % 0.00 in
15:34 71.2 °F 38.3 °F 30.24 in East 5.0 mph 5.0 mph 30 % 0.00 in
15:39 71.2 °F 40.6 °F 30.24 in Calm   8.0 mph 33 % 0.00 in
15:44 71.8 °F 41.2 °F 30.24 in NNE 1.0 mph 8.0 mph 33 % 0.00 in
15:49 71.8 °F 38.7 °F 30.24 in East 4.0 mph 8.0 mph 30 % 0.00 in
15:54 71.4 °F 39.2 °F 30.24 in ENE 1.0 mph 8.0 mph 31 % 0.00 in
15:59 71.8 °F 38.7 °F 30.24 in Calm   8.0 mph 30 % 0.00 in
16:04 72.3 °F 39.9 °F 30.24 in East 3.0 mph 8.0 mph 31 % 0.00 in
16:09 72.3 °F 40.8 °F 30.24 in Calm   7.0 mph 32 % 0.00 in
16:14 72.1 °F 40.6 °F 30.24 in East 1.0 mph 7.0 mph 32 % 0.00 in
16:19 71.8 °F 39.6 °F 30.24 in ESE 4.0 mph 6.0 mph 31 % 0.00 in
16:24 71.2 °F 39.9 °F 30.24 in Calm   9.0 mph 32 % 0.00 in
16:29 71.4 °F 39.2 °F 30.24 in ESE 1.0 mph 9.0 mph 31 % 0.00 in
16:34 71.4 °F 37.6 °F 30.24 in ESE 5.0 mph 9.0 mph 29 % 0.00 in
16:39 71.1 °F 38.8 °F 30.24 in South 2.0 mph 9.0 mph 31 % 0.00 in
16:44 71.2 °F 38.3 °F 30.24 in ENE 2.0 mph 9.0 mph 30 % 0.00 in
16:51 71.1 °F 38.8 °F 30.24 in SSE 7.0 mph 7.0 mph 31 % 0.00 in
16:56 71.1 °F 38.8 °F 30.24 in ESE 6.0 mph 7.0 mph 31 % 0.00 in
17:01 70.7 °F 39.4 °F 30.24 in Calm   7.0 mph 32 % 0.00 in
17:06 70.7 °F 39.4 °F 30.25 in ESE 1.0 mph 7.0 mph 32 % 0.00 in
17:12 70.5 °F 39.2 °F 30.25 in Calm   7.0 mph 32 % 0.00 in
17:17 70.3 °F 39.0 °F 30.24 in Calm   6.0 mph 32 % 0.00 in
17:22 70.0 °F 39.6 °F 30.25 in ESE 2.0 mph 6.0 mph 33 % 0.00 in
17:27 69.6 °F 39.9 °F 30.25 in East 2.0 mph 6.0 mph 34 % 0.00 in
17:32 69.4 °F 39.9 °F 30.25 in ENE 2.0 mph 5.0 mph 34 % 0.00 in
17:37 69.4 °F 40.6 °F 30.25 in East 1.0 mph 5.0 mph 35 % 0.00 in
17:42 69.3 °F 40.5 °F 30.24 in Calm   4.0 mph 35 % 0.00 in
17:47 68.7 °F 39.9 °F 30.25 in ESE 1.0 mph 4.0 mph 35 % 0.00 in
17:52 68.4 °F 40.3 °F 30.25 in Calm   4.0 mph 36 % 0.00 in
17:58 67.8 °F 40.6 °F 30.25 in Calm   3.0 mph 37 % 0.00 in
18:03 67.3 °F 40.1 °F 30.25 in Calm   3.0 mph 37 % 0.00 in
18:08 66.7 °F 40.3 °F 30.25 in Calm   2.0 mph 38 % 0.00 in
18:13 66.4 °F 40.6 °F 30.25 in Calm   2.0 mph 39 % 0.00 in
18:18 65.7 °F 40.6 °F 30.25 in Calm   2.0 mph 40 % 0.00 in
18:23 65.1 °F 40.8 °F 30.25 in Calm   1.0 mph 41 % 0.00 in
18:29 64.6 °F 40.3 °F 30.25 in Calm   1.0 mph 41 % 0.00 in
18:34 63.9 °F 41.0 °F 30.25 in Calm   1.0 mph 43 % 0.00 in
18:39 63.5 °F 41.2 °F 30.25 in Calm   1.0 mph 44 % 0.00 in
18:44 63.3 °F 41.0 °F 30.25 in Calm   1.0 mph 44 % 0.00 in
18:49 63.0 °F 41.4 °F 30.25 in Calm   1.0 mph 45 % 0.00 in
18:54 62.4 °F 41.9 °F 30.26 in Calm   1.0 mph 47 % 0.00 in
18:59 62.1 °F 41.5 °F 30.26 in Calm   1.0 mph 47 % 0.00 in
19:04 61.5 °F 41.2 °F 30.26 in Calm   1.0 mph 47 % 0.00 in
19:09 61.0 °F 41.7 °F 30.27 in Calm   1.0 mph 49 % 0.00 in
19:14 60.6 °F 41.9 °F 30.27 in Calm   1.0 mph 50 % 0.00 in
19:20 60.1 °F 41.9 °F 30.27 in Calm   1.0 mph 51 % 0.00 in
19:30 59.4 °F 42.3 °F 30.27 in Calm   1.0 mph 53 % 0.00 in
19:35 59.2 °F 42.1 °F 30.27 in Calm   1.0 mph 53 % 0.00 in
19:40 58.8 °F 42.3 °F 30.28 in Calm   1.0 mph 54 % 0.00 in
19:46 58.1 °F 42.4 °F 30.28 in Calm     56 % 0.00 in
19:51 57.7 °F 42.6 °F 30.28 in Calm   1.0 mph 57 % 0.00 in
19:56 57.0 °F 41.5 °F 30.27 in Calm   1.0 mph 56 % 0.00 in
20:01 56.8 °F 42.3 °F 30.28 in Calm   1.0 mph 58 % 0.00 in
20:07 57.0 °F 42.4 °F 30.27 in Calm     58 % 0.00 in
20:12 56.8 °F 42.3 °F 30.28 in Calm     58 % 0.00 in
20:17 56.5 °F 42.8 °F 30.28 in Calm     60 % 0.00 in
20:22 56.1 °F 42.4 °F 30.28 in Calm     60 % 0.00 in
20:27 55.8 °F 42.1 °F 30.28 in Calm     60 % 0.00 in
20:32 55.0 °F 41.9 °F 30.28 in Calm     61 % 0.00 in
20:37 54.7 °F 42.3 °F 30.27 in Calm     63 % 0.00 in
20:39 54.5 °F 42.1 °F 30.27 in Calm     63 % 0.00 in
20:42 54.3 °F 42.1 °F 30.27 in Calm     63 % 0.00 in
20:47 54.3 °F 42.8 °F 30.28 in Calm     65 % 0.00 in
20:52 54.7 °F 43.2 °F 30.28 in Calm   1.0 mph 65 % 0.00 in
20:57 54.5 °F 43.0 °F 30.28 in Calm   1.0 mph 65 % 0.00 in
21:02 54.3 °F 43.2 °F 30.28 in Calm   1.0 mph 66 % 0.00 in
21:07 54.7 °F 43.2 °F 30.28 in Calm   2.0 mph 65 % 0.00 in
21:12 54.7 °F 43.2 °F 30.28 in Calm   2.0 mph 65 % 0.00 in
21:17 54.5 °F 43.3 °F 30.28 in Calm   2.0 mph 66 % 0.00 in
21:22 54.3 °F 42.8 °F 30.28 in Calm   1.0 mph 65 % 0.00 in
21:27 54.3 °F 42.8 °F 30.28 in Calm   1.0 mph 65 % 0.00 in
21:32 54.5 °F 43.3 °F 30.28 in Calm   1.0 mph 66 % 0.00 in
21:37 54.5 °F 43.0 °F 30.28 in Calm   1.0 mph 65 % 0.00 in
21:42 54.3 °F 42.8 °F 30.28 in Calm   1.0 mph 65 % 0.00 in
21:47 54.3 °F 42.8 °F 30.28 in Calm   1.0 mph 65 % 0.00 in
21:52 54.0 °F 42.1 °F 30.28 in Calm   1.0 mph 64 % 0.00 in
21:57 53.2 °F 42.3 °F 30.28 in Calm   1.0 mph 66 % 0.00 in
22:03 52.9 °F 41.9 °F 30.29 in Calm   1.0 mph 66 % 0.00 in
22:08 52.5 °F 42.3 °F 30.28 in Calm     68 % 0.00 in
22:13 52.9 °F 42.6 °F 30.28 in Calm     68 % 0.00 in
22:18 53.1 °F 42.8 °F 30.29 in Calm   1.0 mph 68 % 0.00 in
22:23 53.2 °F 43.0 °F 30.29 in Calm   1.0 mph 68 % 0.00 in
22:28 53.1 °F 42.8 °F 30.28 in Calm   1.0 mph 68 % 0.00 in
22:33 52.9 °F 42.6 °F 30.29 in Calm     68 % 0.00 in
22:38 52.5 °F 42.6 °F 30.29 in Calm     69 % 0.00 in
22:43 52.5 °F 43.0 °F 30.29 in Calm   1.0 mph 70 % 0.00 in
22:48 52.5 °F 43.0 °F 30.29 in Calm   1.0 mph 70 % 0.00 in
22:53 52.2 °F 42.6 °F 30.29 in Calm   1.0 mph 70 % 0.00 in
22:58 52.0 °F 42.8 °F 30.29 in Calm   1.0 mph 71 % 0.00 in
23:03 51.6 °F 42.4 °F 30.29 in Calm   1.0 mph 71 % 0.00 in
23:08 51.6 °F 43.0 °F 30.29 in Calm   1.0 mph 72 % 0.00 in
23:13 51.6 °F 43.0 °F 30.29 in Calm     72 % 0.00 in
23:18 51.4 °F 42.4 °F 30.29 in Calm     71 % 0.00 in
23:23 50.7 °F 41.7 °F 30.29 in Calm     71 % 0.00 in
23:28 50.2 °F 41.2 °F 30.28 in Calm     71 % 0.00 in
23:33 49.6 °F 41.4 °F 30.28 in Calm     73 % 0.00 in
23:38 49.3 °F 41.4 °F 30.29 in Calm     74 % 0.00 in
23:43 48.7 °F 41.2 °F 30.28 in Calm     75 % 0.00 in
23:48 48.7 °F 41.9 °F 30.28 in Calm     77 % 0.00 in
23:54 48.9 °F 42.4 °F 30.28 in Calm     78 % 0.00 in
23:59 48.7 °F 42.3 °F 30.28 in Calm     78 % 0.00 in
Spring, Texas: Villages of Bridgestone
Compliments of Weather Underground - 2.75 mb

Script developed by  Jim McMurry - jmcmurry@mwt.net Adapted for the template by  Wim van der Kuil - Leuven-Template.eu

You find our weather info also at:

UK Metoffice

WeatherCloud

Weather Underground

Mid-South Weather Network

AWEKAS

Citizen Weather Observer Program (CWOP)

HAMweather, WeatherForYou, PWS Weather

Equipment we use:

Weather-station
Davis Vantage Vue

Weather-program
Meteohub

Weather-server
Debian 7.9 x86 (Guest)

Provider
DreamHost

Davis Vantage Vue

Meteohub

Debian 7.9 x86 (Guest)

DreamHost